Regional Weather Roundup
Issued by NWS

Home | Current Version | Previous Version | Text Only | Print | Product List | Glossary On
Versions: 1 2 3 4 5 6 7 8 9 10 11 12 13 14 15 16 17 18 19 20 21 22 23 24 25 26 27 28 29 30 31 32 33 34 35 36 37 38 39 40 41 42 43 44 45 46 47 48 49 50
000
ASUS44 KJAN 070310
RWRMS

MISSISSIPPI HOURLY WEATHER ROUNDUP
NATIONAL WEATHER SERVICE JACKSON MS
1000 PM CDT WED MAY 06 2015

NOTE: "FAIR: INDICATES FEW OR NO CLOUDS BELOW 12,000 FEET WITH NO
SIGNIFICANT WEATHER AND/OR OBSTRUCTIONS TO VISIBILITY.

MSZ001>002-007>008-010>013-018>021-025>028-034>036-070400-
NORTHWEST MISSISSIPPI

CITY           SKY/WX    TMP DP  RH WIND       PRES   REMARKS
CLARKSDALE     FAIR      70  57  64 E7        30.04R
CLEVELAND      FAIR      74  61  63 E7        30.01S
GREENWOOD      CLEAR     73  58  59 SE7       30.03R
GREENVILLE     CLEAR     74  56  53 SE7       30.00S
OLIVE BRANCH   CLEAR     66  57  72 SE5       30.06S
OXFORD         FAIR      66  54  63 SE6       30.07S
TUNICA         CLEAR     70  54  56 E6        30.04S
$$

MSZ003>006-009-014>017-022>024-029>033-037>039-070400-
NORTHEAST MISSISSIPPI

CITY           SKY/WX    TMP DP  RH WIND       PRES   REMARKS
COLUMBUS AFB   CLEAR     66  57  71 SE1       30.07S
GOLDN TRIANGLE CLEAR     72  57  60 E8        30.06F
STARKVILLE     FAIR      70  59  68 E5        30.07S
TUPELO         CLEAR     72  58  61 SE6       30.07S
$$

MSZ040-058-070400-
CENTRAL MISSISSIPPI

CITY           SKY/WX    TMP DP  RH WIND       PRES   REMARKS
JACKSON INTL   PTCLDY    71  62  73 SE7       30.04R
JACKSON HAWKNS PTCLDY    74  62  66 SE8       30.04R
MERIDIAN KEY   CLEAR     74  59  59 E8        30.06S
MERIDIAN NAS   CLEAR     70  59  68 E5        30.07R
RAYMOND        MOCLDY    72  66  83 CALM      30.03R
VICKSBURG      CLEAR     67  62  84 E3        30.01R
$$

MSZ059>079-070400-
SOUTH MISSISSIPPI

CITY           SKY/WX    TMP DP  RH WIND       PRES   REMARKS
BROOKHAVEN     FAIR      72  64  78 SE5       30.07R
HATTIESBURG    CLEAR     72  64  76 CALM      30.06S
MCCOMB         CLEAR     71  66  84 SE7       30.05R
NATCHEZ        CLEAR     72  63  73 SE8       30.03R
PINE BELT      CLEAR     70  63  78 S3        30.07R
$$

MSZ080>082-070400-
COASTAL MISSISSIPPI

CITY           SKY/WX    TMP DP  RH WIND       PRES   REMARKS
BILOXI         CLEAR     74  70  86 S6        30.05R
PASCAGOULA     CLEAR     65  63  93 CALM      30.06S
GULFPORT       CLEAR     74  68  81 SE9       30.04S
$$



USA.gov is the U.S. government's official web portal to all federal, state and local government web resources and services.